This is the latest recevied weather packets stored in our database for station/object YF9UAG-17. If no packets are shown the sender has not sent any weather packets the latest 10 day(s).
| Time | Temp. | Humidity | Pressure | Rain* | Wind** | Luminosity | Snow |
|---|---|---|---|---|---|---|---|
| 1787835028 | 29.44° C | 40% | 1034.6 hPa | - | - | - | - |
| 1787834425 | 29.44° C | 40% | 1034.6 hPa | - | - | - | - |
| 1787833823 | 29.44° C | 40% | 1034.4 hPa | - | - | - | - |
| 1787833221 | 30° C | 42% | 1034.3 hPa | - | - | - | - |
| 1787832618 | 29.44° C | 43% | 1034.2 hPa | - | - | - | - |
| 1787832016 | 29.44° C | 43% | 1034 hPa | - | - | - | - |
| 1787831413 | 30° C | 44% | 1033.7 hPa | - | - | - | - |
| 1787830811 | 30° C | 43% | 1033.7 hPa | - | - | - | - |
| 1787830208 | 30° C | 44% | 1033.7 hPa | - | - | - | - |
| 1787829606 | 30° C | 46% | 1033.4 hPa | - | - | - | - |
| 1787829004 | 30° C | 46% | 1033.2 hPa | - | - | - | - |
| 1787828401 | 30° C | 47% | 1033.1 hPa | - | - | - | - |
| 1787827799 | 30° C | 47% | 1032.9 hPa | - | - | - | - |
| 1787827196 | 30.56° C | 46% | 1032.8 hPa | - | - | - | - |
| 1787826594 | 30.56° C | 46% | 1032.7 hPa | - | - | - | - |
| 1787825991 | 30.56° C | 46% | 1032.7 hPa | - | - | - | - |
| 1787825389 | 31.11° C | 45% | 1032.5 hPa | - | - | - | - |
| 1787824787 | 31.11° C | 44% | 1032.5 hPa | - | - | - | - |
| 1787824184 | 31.11° C | 43% | 1032.4 hPa | - | - | - | - |
| 1787823582 | 31.67° C | 43% | 1032.2 hPa | - | - | - | - |
| 1787822980 | 31.67° C | 45% | 1032.2 hPa | - | - | - | - |
| 1787822377 | 31.67° C | 44% | 1032.1 hPa | - | - | - | - |
| 1787821775 | 32.22° C | 44% | 1032.1 hPa | - | - | - | - |
| 1787821169 | 32.22° C | 45% | 1032 hPa | - | - | - | - |
| 1787820567 | 32.22° C | 43% | 1032 hPa | - | - | - | - |
* Rain since midnight (hover to see other rain measurements)
** Current wind speed in m/s (hover to see current wind gust speed)